DateTimeUTC,F1_A11,F1_S11,BsB_S11,BsG_S11,BsR_S11,BbsB_S11,BbsG_S11,BbsR_S11,BaB_A11,BaG_A11,BaR_A11,Tu_S11,T_S11,Uu_S11,U_S11,P_S11,T1_A11
2021-08-02T02:00:00Z,00000200,20000000,,,,,,,0000.37,-000.07,-000.07,18.5,25.6,02.6,01.7,0673.8,31.0
2021-08-02T02:01:00Z,00000200,20000000,,,,,,,0000.09,0000.41,0000.17,18.5,25.6,02.6,01.7,0673.8,31.0
2021-08-02T02:02:00Z,00000200,20000000,,,,,,,0000.22,-000.11,0000.08,18.5,25.6,02.5,01.6,0673.8,31.0
2021-08-02T02:03:00Z,00000200,60000000,,,,,,,-000.06,-000.20,-000.09,18.5,25.6,02.3,01.5,0673.8,31.0
2021-08-02T02:04:00Z,00000200,40000000,-000.76,-000.08,0000.02,0000.02,0000.07,0000.07,-000.35,-000.05,0000.01,18.8,25.5,02.6,01.8,0674.6,31.1
2021-08-02T02:05:00Z,00000200,00000000,-000.17,0000.34,-000.05,0000.15,0000.25,-000.15,0000.27,0000.07,0000.12,18.9,25.5,02.5,01.7,0674.7,31.0
2021-08-02T02:06:00Z,00000200,00000000,0000.21,0000.21,0000.03,0000.08,0000.25,-000.10,-000.20,0000.10,-000.20,18.9,25.5,02.5,01.7,0674.7,31.0
2021-08-02T02:07:00Z,00000200,00000000,-000.42,-000.20,0000.10,0000.38,0000.27,0000.19,0000.68,0000.64,0000.72,18.8,25.4,02.5,01.6,0674.6,31.0
2021-08-02T02:08:00Z,00000200,00000000,-001.04,0000.11,-000.04,0000.09,0000.41,-000.10,-000.44,-000.32,-000.11,18.8,25.4,02.7,01.8,0674.7,31.0
2021-08-02T02:09:00Z,00000200,00000000,-000.02,0000.19,0000.01,0000.03,0000.24,0000.17,0000.35,0000.21,0000.12,18.8,25.4,02.7,01.8,0674.7,31.0
2021-08-02T02:10:00Z,00000200,00000000,-000.39,0000.25,0000.05,-000.14,0000.27,-000.07,-000.04,0000.04,-000.35,18.7,25.3,02.6,01.8,0674.7,31.0
2021-08-02T02:11:00Z,00000200,00000000,0000.28,-000.16,0000.26,0000.24,0000.27,-000.21,-000.15,-000.50,-000.58,18.7,25.3,02.5,01.7,0674.7,31.0
2021-08-02T02:12:00Z,00000200,00000000,0000.61,-000.15,0000.13,0000.76,0000.36,-000.04,-000.51,-000.09,0000.11,18.7,25.3,02.3,01.6,0674.7,31.0
2021-08-02T02:13:00Z,00000200,00000000,-000.04,-000.02,0000.17,-000.20,0000.06,0000.07,0000.29,0000.01,0000.33,18.7,25.3,02.2,01.5,0674.6,31.0
2021-08-02T02:14:00Z,00000200,00000000,0000.57,0000.14,-000.16,0000.25,0000.09,0000.23,-000.03,0000.20,-000.49,18.7,25.3,02.3,01.5,0674.6,31.0
2021-08-02T02:15:00Z,00000200,00000000,0000.63,0000.18,0000.55,0000.35,0000.10,0000.56,-000.13,-000.28,0000.31,18.6,25.2,02.3,01.5,0674.6,31.0
2021-08-02T02:16:00Z,00000200,00000000,-000.68,0000.04,-000.62,-000.33,0000.19,-000.36,0000.42,0000.60,0000.19,18.6,25.2,02.3,01.5,0674.5,31.0
2021-08-02T02:17:00Z,00000200,00000000,-000.75,-000.21,0000.19,0000.13,0000.31,-000.23,0000.36,-000.01,0000.21,18.6,25.2,02.5,01.7,0674.5,31.0
2021-08-02T02:18:00Z,00000200,00000000,0000.74,-000.26,0000.19,0000.05,0000.47,0000.14,-000.07,0000.15,-000.27,18.7,25.3,02.3,01.5,0674.5,31.0
2021-08-02T02:19:00Z,00000200,00000000,0000.51,0000.06,-000.26,0000.18,0000.10,0000.12,-000.08,-000.12,0000.12,18.8,25.3,02.3,01.5,0674.5,31.0
2021-08-02T02:20:00Z,00000200,00000000,-000.22,0000.10,-000.27,0000.64,0000.03,0000.02,-000.10,-000.18,0000.04,18.8,25.3,02.3,01.5,0674.5,31.0
2021-08-02T02:21:00Z,00000200,00000000,-000.06,-000.23,0000.30,0000.21,0000.22,0000.21,0000.13,0000.00,-000.17,18.8,25.3,02.3,01.5,0674.5,31.0
2021-08-02T02:22:00Z,00000200,00000000,-000.65,-000.25,-000.28,0000.35,0000.32,0000.17,0000.13,0000.17,0000.36,18.8,25.3,02.3,01.6,0674.5,31.0
2021-08-02T02:23:00Z,00000200,00000000,-000.88,0000.07,-000.22,-000.01,-000.01,-000.10,-000.28,0000.04,-000.21,18.8,25.3,02.2,01.5,0674.5,31.0
2021-08-02T02:24:00Z,00000200,00000000,-000.21,0000.36,0000.17,0000.15,0000.18,-000.22,0000.18,0000.09,0000.08,18.7,25.3,02.4,01.6,0674.5,31.0
2021-08-02T02:25:00Z,00000200,00000000,-000.01,0000.22,-000.09,0000.34,0000.20,-000.05,0000.12,-000.07,0000.06,18.7,25.3,02.4,01.6,0674.5,31.0
2021-08-02T02:26:00Z,00000200,00000000,-000.02,-000.20,-000.04,0000.24,0000.38,-000.16,-000.31,0000.19,-000.09,18.7,25.2,02.3,01.5,0674.5,31.0
2021-08-02T02:27:00Z,00000200,00000000,-000.06,-000.03,-000.07,-000.20,-000.07,-000.14,0000.46,-000.04,0000.42,18.6,25.2,02.3,01.5,0674.5,31.0
2021-08-02T02:28:00Z,00000200,00000000,-000.06,-000.23,-000.22,-000.38,0000.04,0000.20,0000.30,0000.18,0000.04,18.6,25.2,02.4,01.6,0674.5,31.0
2021-08-02T02:29:00Z,00000200,00000000,0000.06,0000.05,0000.00,0000.55,0000.03,-000.03,0000.21,0000.13,0000.38,18.6,25.2,02.4,01.6,0674.4,31.0
2021-08-02T02:30:00Z,00000200,00000000,-000.21,0000.06,-000.53,-000.37,0000.39,-000.30,-000.49,-000.18,-000.42,18.6,25.2,02.5,01.7,0674.5,31.0
2021-08-02T02:31:00Z,00000200,00000000,-000.51,0000.25,-000.49,0000.08,-000.10,-000.23,0000.00,0000.18,-000.08,18.6,25.1,02.5,01.7,0674.5,31.0
2021-08-02T02:32:00Z,00000200,00000000,-000.21,0000.05,0000.09,0000.39,-000.05,0000.20,-000.03,-000.13,-000.51,18.6,25.1,02.3,01.5,0674.5,31.0
2021-08-02T02:33:00Z,00000200,00000000,-000.11,-000.13,0000.10,0000.34,0000.01,0000.05,0000.07,0000.19,0000.49,18.6,25.2,02.2,01.5,0674.5,31.0
2021-08-02T02:34:00Z,00000200,00000000,-000.43,-000.10,0000.07,0000.15,0000.11,-000.03,0000.13,-000.17,-000.12,18.7,25.2,02.2,01.5,0674.4,31.0
2021-08-02T02:35:00Z,00000200,00000000,-000.72,-000.02,-000.15,0000.26,0000.02,-000.24,0000.34,0000.22,0000.36,18.8,25.3,02.2,01.5,0674.4,31.0
2021-08-02T02:36:00Z,00000200,00000000,-000.10,0000.05,-000.04,0000.48,0000.19,-000.17,-000.48,-000.39,-000.27,18.9,25.3,02.2,01.5,0674.5,31.0
2021-08-02T02:37:00Z,00000200,00000000,-000.37,-000.21,-000.04,-000.39,-000.03,0000.02,-000.26,-000.26,-000.12,18.9,25.3,02.2,01.5,0674.5,31.0
2021-08-02T02:38:00Z,00000200,00000000,-000.25,-000.35,-000.23,0000.52,0000.14,-000.01,0000.29,0000.37,-000.53,18.8,25.3,02.1,01.4,0674.5,31.0
2021-08-02T02:39:00Z,00000200,00000000,0000.40,0000.05,-000.37,0000.17,0000.16,-000.22,-000.34,-000.34,0000.26,18.8,25.3,02.1,01.4,0674.4,31.0
2021-08-02T02:40:00Z,00000200,00000000,0000.20,0000.09,0000.09,0000.30,0000.11,0000.32,0000.29,0000.20,0000.32,18.7,25.2,02.2,01.4,0674.5,31.0
2021-08-02T02:41:00Z,00000200,00000000,-000.43,-000.08,-000.08,-000.17,-000.05,-000.08,0000.04,0000.06,-000.01,18.7,25.2,02.2,01.5,0674.5,31.0
2021-08-02T02:42:00Z,00000200,01000000,-000.97,0000.14,-000.33,-000.07,0000.10,-000.39,-000.12,-000.17,-000.28,18.7,25.2,02.1,01.4,0674.4,31.0
2021-08-02T02:43:00Z,00000200,01000000,-000.35,-000.14,0000.17,0000.36,0000.06,0000.13,0000.30,0000.24,0000.24,18.6,25.2,02.2,01.5,0674.5,31.0
2021-08-02T02:44:00Z,00000200,00000000,0000.20,-000.06,0000.06,0000.23,0000.08,-000.09,-000.12,-000.24,0000.06,18.6,25.2,02.2,01.5,0674.5,31.0
2021-08-02T02:45:00Z,00000200,00000000,-000.36,-000.09,0000.17,-000.01,0000.09,-000.21,-000.14,0000.09,-000.14,18.6,25.1,02.2,01.4,0674.5,31.0
2021-08-02T02:46:00Z,00000200,01000000,0000.07,0000.29,0000.03,0000.40,0000.05,-000.04,0000.40,0000.10,0000.19,18.6,25.1,02.1,01.4,0674.5,31.0
2021-08-02T02:47:00Z,00000200,01000000,0000.19,0000.17,-000.11,0000.15,0000.27,-000.20,0000.04,0000.11,0000.15,18.6,25.1,02.1,01.4,0674.5,31.0
2021-08-02T02:48:00Z,00000200,00000000,0000.60,0000.10,0000.05,0000.60,0000.11,0000.08,0000.63,0000.81,0000.87,18.7,25.2,02.5,01.7,0674.5,31.0
2021-08-02T02:49:00Z,00000200,00000000,-000.11,0000.01,0000.27,0000.24,0000.05,-000.04,-000.49,-000.37,-000.63,18.7,25.2,02.4,01.6,0674.5,31.0
2021-08-02T02:50:00Z,00000200,00000000,-000.52,0000.05,-000.18,-000.22,0000.31,0000.14,0000.04,-000.44,-000.21,18.8,25.3,02.1,01.4,0674.5,31.0
2021-08-02T02:51:00Z,00000200,00000000,-000.35,0000.17,-000.16,0000.60,0000.34,-000.24,-000.09,0000.42,-000.02,18.8,25.3,02.1,01.4,0674.5,31.0
2021-08-02T02:52:00Z,00000200,00000000,-000.11,0000.02,-000.23,0000.79,0000.35,-000.11,-000.16,0000.04,-000.04,18.8,25.3,02.2,01.5,0674.5,31.0
2021-08-02T02:53:00Z,00000200,00000000,-000.43,-000.02,-000.13,0000.46,0000.47,-000.15,-000.08,-000.22,-000.16,18.8,25.2,02.1,01.4,0674.4,31.0
2021-08-02T02:54:00Z,00000200,00000000,0000.19,0000.03,0000.22,0000.77,0000.07,-000.01,0000.15,-000.23,0000.03,18.7,25.2,02.0,01.4,0674.4,31.0
2021-08-02T02:55:00Z,00000200,00000000,0000.09,-000.24,0000.19,0000.17,-000.02,-000.07,-000.27,-000.04,-000.26,18.7,25.2,02.1,01.4,0674.4,31.0
2021-08-02T02:56:00Z,00000200,00000000,0000.20,0000.29,-000.15,-000.18,0000.02,-000.09,0000.11,0000.34,0000.20,18.6,25.2,02.0,01.4,0674.3,31.0
2021-08-02T02:57:00Z,00000200,40000000,,,,,,,0000.64,0000.21,0000.62,18.7,25.2,02.2,01.5,0674.2,31.0
2021-08-02T02:58:00Z,00000200,60000000,,,,,,,-000.23,0000.03,-000.06,18.3,25.3,02.3,01.5,0673.3,31.0
2021-08-02T02:59:00Z,00000200,20000000,,,,,,,-000.28,-000.43,-000.53,18.3,25.4,02.0,01.3,0673.3,31.0
